Location: Borkenes
(68.7830°N, 16.1830°E)
Time: 11:55:45
(UTC+01:00)

Transit 2A Rocket - Visible Passes

Search period start: 06 December 2019 00:00
Search period end: 16 December 2019 00:00
Orbit: 594 x 909 km, 66.7° (Epoch: 05 December)

Date Brightness Start Highest point End Pass type
(mag) Time Alt. Az. Time Alt. Az. Time Alt. Az.
06 Dec 6.7 18:29:32 10° SSW 18:30:42 16° S 18:30:42 16° S visible
07 Dec 6.3 17:47:37 10° S 17:49:30 18° SSE 17:49:30 18° SSE visible
07 Dec 7.0 19:28:35 10° SW 19:29:25 15° SW 19:29:25 15° SW visible
08 Dec 6.3 17:05:59 10° SSE 17:08:17 16° SE 17:08:17 16° SE visible
08 Dec 6.3 18:46:18 10° SW 18:48:11 23° SSW 18:48:11 23° SSW visible
09 Dec 6.5 16:24:47 10° SE 16:26:37 12° ESE 16:27:01 12° ESE visible
09 Dec 5.8 18:04:08 10° SSW 18:06:55 28° SSE 18:06:55 28° SSE visible
09 Dec 6.9 19:45:47 10° WSW 19:46:50 17° WSW 19:46:50 17° WSW visible
10 Dec 5.8 17:22:07 10° S 17:25:37 25° SE 17:25:37 25° SE visible
10 Dec 6.2 19:03:22 10° SW 19:05:32 27° SW 19:05:32 27° SW visible
11 Dec 6.1 16:40:17 10° S 16:43:28 20° SE 16:44:17 19° ESE visible
11 Dec 5.4 18:21:02 10° SW 18:24:12 37° S 18:24:12 37° S visible
11 Dec 7.0 20:03:06 10° WSW 20:04:06 17° WSW 20:04:06 17° WSW visible
12 Dec 6.4 15:58:46 10° SSE 16:01:16 15° ESE 16:02:57 12° E visible
12 Dec 5.2 17:38:48 10° SSW 17:42:48 36° SE 17:42:51 36° SE visible
12 Dec 6.2 19:20:38 10° WSW 19:22:45 28° WSW 19:22:45 28° WSW visible
13 Dec 6.7 15:17:54 10° SE 15:19:08 11° ESE 15:20:22 10° E visible
13 Dec 5.6 16:56:41 10° SSW 17:00:27 29° SE 17:01:28 26° ESE visible
13 Dec 5.3 18:38:11 10° WSW 18:41:23 43° SSW 18:41:23 43° SSW visible
13 Dec 7.2 20:20:28 10° W 20:21:17 15° W 20:21:17 15° W visible
14 Dec 6.0 16:14:43 10° S 16:18:10 23° SE 16:20:05 17° E visible
14 Dec 4.8 17:55:49 10° SW 17:59:59 49° SSE 17:59:59 49° SSE visible
14 Dec 6.5 19:37:58 10° W 19:39:53 25° WSW 19:39:53 25° WSW visible
15 Dec 6.4 15:32:58 10° SSE 15:35:56 18° SE 15:38:41 11° E visible
15 Dec 5.1 17:13:30 10° SW 17:17:36 41° SSE 17:18:35 35° ESE visible
15 Dec 5.5 18:55:29 10° WSW 18:58:29 42° WSW 18:58:29 42° WSW visible
15 Dec 7.4 20:37:51 10° W 20:38:23 13° W 20:38:23 13° W visible
